Time,TemperatureF,DewpointF,PressureIn,WindDirection,WindDirectionDegrees,WindSpeedMPH,WindSpeedGustMPH,Humidity,HourlyPrecipIn,Conditions,Clouds,dailyrainin,SolarRadiationWatts/m^2,SoftwareType,DateUTC
2013-06-16 00:11:00,60.1,56.0,29.91,SSW,194,0.0,2.0,87,0.00,,,0.00,0,weatherlink.com 1.10,2013-06-16 04:11:00,
2013-06-16 00:26:00,60.5,56.0,29.91,WSW,237,0.0,2.0,86,0.00,,,0.00,0,weatherlink.com 1.10,2013-06-16 04:26:00,
2013-06-16 00:41:00,60.6,56.0,29.91,West,276,0.0,1.0,86,0.00,,,0.00,0,weatherlink.com 1.10,2013-06-16 04:41:00,
2013-06-16 00:56:00,60.7,57.0,29.90,WSW,257,0.0,1.0,86,0.00,,,0.00,0,weatherlink.com 1.10,2013-06-16 04:56:00,
2013-06-16 01:11:00,60.9,57.0,29.90,South,182,4.0,4.0,86,0.00,,,0.00,0,weatherlink.com 1.10,2013-06-16 05:11:00,
2013-06-16 01:26:00,60.8,57.0,29.90,South,183,0.0,2.0,87,0.00,,,0.00,0,weatherlink.com 1.10,2013-06-16 05:26:00,
2013-06-16 01:41:00,60.9,57.0,29.89,WSW,252,0.0,2.0,87,0.00,,,0.00,0,weatherlink.com 1.10,2013-06-16 05:41:00,
2013-06-16 01:56:00,60.9,57.0,29.89,ESE,108,0.0,2.0,88,0.00,,,0.00,0,weatherlink.com 1.10,2013-06-16 05:56:00,
2013-06-16 02:11:00,60.9,58.0,29.89,South,171,0.0,2.0,89,0.00,,,0.00,0,weatherlink.com 1.10,2013-06-16 06:11:00,
2013-06-16 02:26:00,60.8,58.0,29.89,WSW,257,0.0,1.0,90,0.00,,,0.00,0,weatherlink.com 1.10,2013-06-16 06:26:00,
2013-06-16 02:41:00,60.5,58.0,29.90,West,268,0.0,3.0,91,0.00,,,0.00,0,weatherlink.com 1.10,2013-06-16 06:41:00,
2013-06-16 02:56:00,60.0,57.0,29.90,West,268,0.0,0.0,91,0.00,,,0.00,0,weatherlink.com 1.10,2013-06-16 06:56:00,
2013-06-16 03:11:00,59.5,57.0,29.90,West,268,0.0,0.0,92,0.00,,,0.00,0,weatherlink.com 1.10,2013-06-16 07:11:00,
2013-06-16 03:26:00,59.0,57.0,29.90,West,268,0.0,0.0,93,0.00,,,0.00,0,weatherlink.com 1.10,2013-06-16 07:26:00,
2013-06-16 03:41:00,58.7,57.0,29.90,West,268,0.0,0.0,94,0.00,,,0.00,0,weatherlink.com 1.10,2013-06-16 07:41:00,
2013-06-16 03:56:00,58.6,57.0,29.90,West,268,0.0,1.0,95,0.00,,,0.00,0,weatherlink.com 1.10,2013-06-16 07:56:00,
2013-06-16 04:11:00,58.4,57.0,29.90,West,268,0.0,0.0,95,0.00,,,0.00,0,weatherlink.com 1.10,2013-06-16 08:11:00,
2013-06-16 04:26:00,58.0,57.0,29.90,West,268,0.0,0.0,95,0.00,,,0.00,0,weatherlink.com 1.10,2013-06-16 08:26:00,
2013-06-16 04:41:00,57.7,56.0,29.90,West,268,0.0,0.0,95,0.00,,,0.00,0,weatherlink.com 1.10,2013-06-16 08:41:00,
2013-06-16 04:56:00,57.5,56.0,29.89,West,268,0.0,0.0,96,0.00,,,0.00,0,weatherlink.com 1.10,2013-06-16 08:56:00,
2013-06-16 05:11:00,57.3,56.0,29.90,West,268,0.0,0.0,96,0.00,,,0.00,5,weatherlink.com 1.10,2013-06-16 09:11:00,
2013-06-16 05:26:00,57.0,56.0,29.89,West,268,0.0,0.0,97,0.00,,,0.00,11,weatherlink.com 1.10,2013-06-16 09:26:00,
2013-06-16 05:41:00,57.8,57.0,29.90,West,268,0.0,0.0,97,0.00,,,0.00,18,weatherlink.com 1.10,2013-06-16 09:41:00,
2013-06-16 05:56:00,58.2,57.0,29.90,West,268,0.0,0.0,97,0.00,,,0.00,23,weatherlink.com 1.10,2013-06-16 09:56:00,
2013-06-16 06:11:00,58.6,58.0,29.90,West,268,0.0,0.0,98,0.00,,,0.00,26,weatherlink.com 1.10,2013-06-16 10:11:00,
2013-06-16 06:26:00,59.8,59.0,29.90,SSE,156,0.0,2.0,98,0.00,,,0.00,37,weatherlink.com 1.10,2013-06-16 10:26:00,
2013-06-16 06:41:00,60.4,60.0,29.90,SE,130,0.0,1.0,98,0.00,,,0.00,49,weatherlink.com 1.10,2013-06-16 10:41:00,
2013-06-16 06:56:00,60.9,60.0,29.90,SE,130,0.0,1.0,98,0.00,,,0.00,40,weatherlink.com 1.10,2013-06-16 10:56:00,
2013-06-16 07:11:00,61.5,60.0,29.89,SSE,154,0.0,2.0,96,0.00,,,0.00,53,weatherlink.com 1.10,2013-06-16 11:11:00,
2013-06-16 07:26:00,62.5,61.0,29.91,SSE,154,0.0,1.0,93,0.00,,,0.00,53,weatherlink.com 1.10,2013-06-16 11:26:00,
2013-06-16 07:42:00,64.1,60.0,29.91,WNW,284,0.0,1.0,85,0.00,,,0.00,58,weatherlink.com 1.10,2013-06-16 11:42:00,
2013-06-16 07:57:00,65.3,59.0,29.91,West,281,0.0,0.0,80,0.00,,,0.00,62,weatherlink.com 1.10,2013-06-16 11:57:00,
2013-06-16 08:12:00,67.2,58.0,29.91,South,174,0.0,2.0,73,0.00,,,0.00,438,weatherlink.com 1.10,2013-06-16 12:12:00,
2013-06-16 08:27:00,69.8,58.0,29.91,ESE,118,0.0,2.0,67,0.00,,,0.00,489,weatherlink.com 1.10,2013-06-16 12:27:00,
2013-06-16 08:42:00,71.7,58.0,29.90,West,272,0.0,4.0,62,0.00,,,0.00,548,weatherlink.com 1.10,2013-06-16 12:42:00,
2013-06-16 08:57:00,73.3,58.0,29.89,South,178,0.0,3.0,59,0.00,,,0.00,580,weatherlink.com 1.10,2013-06-16 12:57:00,
2013-06-16 09:12:00,73.9,58.0,29.89,SE,128,0.0,3.0,57,0.00,,,0.00,622,weatherlink.com 1.10,2013-06-16 13:12:00,
2013-06-16 09:27:00,74.6,60.0,29.89,West,281,0.0,4.0,60,0.00,,,0.00,675,weatherlink.com 1.10,2013-06-16 13:27:00,
2013-06-16 09:42:00,75.3,58.0,29.89,West,280,2.0,5.0,56,0.00,,,0.00,686,weatherlink.com 1.10,2013-06-16 13:42:00,
2013-06-16 09:57:00,76.3,58.0,29.89,West,281,0.0,3.0,54,0.00,,,0.00,758,weatherlink.com 1.10,2013-06-16 13:57:00,
2013-06-16 10:12:00,77.4,61.0,29.89,SSE,149,0.0,3.0,57,0.00,,,0.00,782,weatherlink.com 1.10,2013-06-16 14:12:00,
2013-06-16 10:27:00,77.2,62.0,29.89,SSW,208,0.0,6.0,59,0.00,,,0.00,882,weatherlink.com 1.10,2013-06-16 14:27:00,
2013-06-16 10:42:00,77.0,58.0,29.88,South,179,8.0,8.0,53,0.00,,,0.00,824,weatherlink.com 1.10,2013-06-16 14:42:00,
2013-06-16 10:57:00,76.2,56.0,29.88,South,191,4.0,9.0,50,0.00,,,0.00,758,weatherlink.com 1.10,2013-06-16 14:57:00,
2013-06-16 11:12:00,76.2,58.0,29.88,South,174,1.0,8.0,53,0.00,,,0.00,1107,weatherlink.com 1.10,2013-06-16 15:12:00,
2013-06-16 11:27:00,76.3,56.0,29.87,SSW,199,0.0,6.0,50,0.00,,,0.00,452,weatherlink.com 1.10,2013-06-16 15:27:00,
2013-06-16 11:42:00,76.0,56.0,29.87,South,191,0.0,9.0,50,0.00,,,0.00,1090,weatherlink.com 1.10,2013-06-16 15:42:00,
2013-06-16 11:57:00,76.2,55.0,29.87,ENE,57,1.0,7.0,48,0.00,,,0.00,1044,weatherlink.com 1.10,2013-06-16 15:57:00,
2013-06-16 12:12:00,75.9,58.0,29.86,South,184,0.0,9.0,54,0.00,,,0.00,722,weatherlink.com 1.10,2013-06-16 16:12:00,
2013-06-16 12:27:00,76.7,61.0,29.86,SE,137,0.0,7.0,59,0.00,,,0.00,990,weatherlink.com 1.10,2013-06-16 16:27:00,
2013-06-16 12:43:00,75.7,56.0,29.85,South,180,4.0,9.0,51,0.00,,,0.00,534,weatherlink.com 1.10,2013-06-16 16:43:00,
2013-06-16 12:58:00,73.8,54.0,29.85,SW,226,0.0,8.0,51,0.00,,,0.00,534,weatherlink.com 1.10,2013-06-16 16:58:00,
2013-06-16 13:13:00,72.9,58.0,29.84,South,182,1.0,8.0,59,0.00,,,0.00,429,weatherlink.com 1.10,2013-06-16 17:13:00,
2013-06-16 13:28:00,71.2,60.0,29.84,South,175,0.0,7.0,67,0.00,,,0.00,283,weatherlink.com 1.10,2013-06-16 17:28:00,
2013-06-16 13:43:00,69.9,60.0,29.84,SSW,198,1.0,8.0,70,0.00,,,0.00,406,weatherlink.com 1.10,2013-06-16 17:43:00,
2013-06-16 13:58:00,70.3,62.0,29.83,SSW,210,0.0,6.0,74,0.00,,,0.00,290,weatherlink.com 1.10,2013-06-16 17:58:00,
2013-06-16 14:13:00,70.6,62.0,29.83,SE,145,2.0,8.0,73,0.00,,,0.00,454,weatherlink.com 1.10,2013-06-16 18:13:00,
2013-06-16 14:28:00,72.4,63.0,29.83,SSW,201,0.0,4.0,71,0.00,,,0.00,415,weatherlink.com 1.10,2013-06-16 18:28:00,
2013-06-16 14:43:00,72.1,62.0,29.82,South,183,1.0,6.0,70,0.00,,,0.00,338,weatherlink.com 1.10,2013-06-16 18:43:00,
2013-06-16 14:58:00,71.0,62.0,29.82,SE,146,5.0,9.0,72,0.00,,,0.00,339,weatherlink.com 1.10,2013-06-16 18:58:00,
2013-06-16 15:13:00,70.8,63.0,29.81,SSE,162,3.0,9.0,75,0.00,,,0.00,308,weatherlink.com 1.10,2013-06-16 19:13:00,
2013-06-16 15:28:00,70.5,62.0,29.80,SSW,208,6.0,11.0,74,0.00,,,0.00,257,weatherlink.com 1.10,2013-06-16 19:28:00,
2013-06-16 15:43:00,69.6,62.0,29.79,SSE,165,0.0,10.0,76,0.00,,,0.00,195,weatherlink.com 1.10,2013-06-16 19:43:00,
2013-06-16 15:58:00,68.7,62.0,29.79,SSE,154,2.0,5.0,79,0.00,,,0.00,141,weatherlink.com 1.10,2013-06-16 19:58:00,
2013-06-16 16:13:00,67.8,62.0,29.78,SE,127,1.0,3.0,81,0.00,,,0.00,218,weatherlink.com 1.10,2013-06-16 20:13:00,
2013-06-16 16:28:00,67.2,61.0,29.78,SSE,162,0.0,7.0,81,0.00,,,0.00,111,weatherlink.com 1.10,2013-06-16 20:28:00,
2013-06-16 16:43:00,66.6,61.0,29.78,South,181,0.0,10.0,81,0.00,,,0.00,65,weatherlink.com 1.10,2013-06-16 20:43:00,
2013-06-16 16:58:00,66.1,61.0,29.78,SW,217,0.0,10.0,82,0.00,,,0.00,107,weatherlink.com 1.10,2013-06-16 20:58:00,
2013-06-16 17:13:00,65.9,61.0,29.77,WSW,239,0.0,7.0,84,0.00,,,0.00,81,weatherlink.com 1.10,2013-06-16 21:13:00,
2013-06-16 17:28:00,66.0,62.0,29.76,South,174,1.0,7.0,86,0.00,,,0.00,153,weatherlink.com 1.10,2013-06-16 21:28:00,
2013-06-16 17:43:00,66.3,62.0,29.76,SSE,150,0.0,9.0,87,0.00,,,0.00,144,weatherlink.com 1.10,2013-06-16 21:43:00,
2013-06-16 17:58:00,66.3,63.0,29.75,SW,234,5.0,12.0,88,0.00,,,0.00,91,weatherlink.com 1.10,2013-06-16 21:58:00,
2013-06-16 18:13:00,66.0,63.0,29.75,West,262,3.0,13.0,90,0.00,,,0.00,74,weatherlink.com 1.10,2013-06-16 22:13:00,
2013-06-16 18:28:00,66.1,63.0,29.74,SSW,192,5.0,12.0,90,0.00,,,0.00,67,weatherlink.com 1.10,2013-06-16 22:28:00,
2013-06-16 18:43:00,65.7,63.0,29.74,South,172,2.0,15.0,90,0.00,,,0.00,46,weatherlink.com 1.10,2013-06-16 22:43:00,
2013-06-16 18:58:00,65.7,63.0,29.74,SSW,205,1.0,11.0,90,0.00,,,0.00,33,weatherlink.com 1.10,2013-06-16 22:58:00,
2013-06-16 19:13:00,65.8,63.0,29.74,SW,236,0.0,13.0,90,0.00,,,0.00,26,weatherlink.com 1.10,2013-06-16 23:13:00,
2013-06-16 19:28:00,66.0,63.0,29.74,South,173,7.0,15.0,90,0.00,,,0.00,14,weatherlink.com 1.10,2013-06-16 23:28:00,
2013-06-16 19:43:00,65.7,63.0,29.73,SSE,167,5.0,13.0,90,0.00,,,0.00,5,weatherlink.com 1.10,2013-06-16 23:43:00,
2013-06-16 19:58:00,65.4,63.0,29.73,South,189,9.0,16.0,91,0.00,,,0.00,7,weatherlink.com 1.10,2013-06-16 23:58:00,
2013-06-16 20:13:00,65.1,63.0,29.73,NE,49,10.0,14.0,91,0.00,,,0.00,5,weatherlink.com 1.10,2013-06-17 00:13:00,
2013-06-16 20:28:00,64.9,63.0,29.72,SSW,203,0.0,10.0,92,0.00,,,0.00,0,weatherlink.com 1.10,2013-06-17 00:28:00,
2013-06-16 20:43:00,64.7,62.0,29.72,WNW,287,2.0,8.0,92,0.00,,,0.00,0,weatherlink.com 1.10,2013-06-17 00:43:00,
2013-06-16 20:58:00,64.4,62.0,29.73,WNW,301,0.0,8.0,92,0.00,,,0.00,0,weatherlink.com 1.10,2013-06-17 00:58:00,
2013-06-16 21:13:00,64.2,62.0,29.73,WSW,257,0.0,9.0,92,0.00,,,0.00,0,weatherlink.com 1.10,2013-06-17 01:13:00,
2013-06-16 21:28:00,64.2,62.0,29.74,South,175,0.0,6.0,92,0.00,,,0.00,0,weatherlink.com 1.10,2013-06-17 01:28:00,
2013-06-16 21:43:00,64.2,62.0,29.73,SSE,166,3.0,11.0,92,0.00,,,0.00,0,weatherlink.com 1.10,2013-06-17 01:43:00,
2013-06-16 21:58:00,64.3,62.0,29.74,SW,228,2.0,5.0,93,0.00,,,0.00,0,weatherlink.com 1.10,2013-06-17 01:58:00,
2013-06-16 22:13:00,64.5,63.0,29.73,WSW,247,6.0,6.0,93,0.00,,,0.00,0,weatherlink.com 1.10,2013-06-17 02:13:00,
2013-06-16 22:28:00,64.9,63.0,29.73,South,188,0.0,4.0,92,0.00,,,0.00,0,weatherlink.com 1.10,2013-06-17 02:28:00,
2013-06-16 22:43:00,65.0,62.0,29.73,SSE,147,3.0,6.0,91,0.00,,,0.00,0,weatherlink.com 1.10,2013-06-17 02:43:00,
2013-06-16 22:58:00,65.1,63.0,29.73,SSE,163,0.0,7.0,91,0.00,,,0.00,0,weatherlink.com 1.10,2013-06-17 02:58:00,
2013-06-16 23:13:00,65.0,62.0,29.74,SSE,160,0.0,5.0,91,0.00,,,0.00,0,weatherlink.com 1.10,2013-06-17 03:13:00,
2013-06-16 23:28:00,65.0,62.0,29.74,SE,124,0.0,4.0,91,0.00,,,0.00,0,weatherlink.com 1.10,2013-06-17 03:28:00,
2013-06-16 23:43:00,65.1,63.0,29.74,SSW,197,0.0,6.0,91,0.00,,,0.00,0,weatherlink.com 1.10,2013-06-17 03:43:00,
2013-06-16 23:58:00,65.4,63.0,29.74,South,190,0.0,6.0,91,0.00,,,0.00,0,weatherlink.com 1.10,2013-06-17 03:58:00,